Location: Unspecified
(0.0000°N, 0.0000°E)
Time: 20:32:51
(UTC+00:00)

OTV 5 (USA 277) - Visible Passes

Search period start: 18 December 2017 00:00
Search period end: 28 December 2017 00:00
Orbit: 404 x 417 km, 43.0° (Epoch: 07 September)

Date Brightness Start Highest point End Pass type
(mag) Time Alt. Az. Time Alt. Az. Time Alt. Az.
18 Dec ? 19:20:28 10° NNW 19:22:08 25° NNW 19:22:08 25° NNW visible
19 Dec ? 18:29:57 10° N 18:32:42 23° NE 18:35:28 10° E visible
19 Dec ? 20:07:45 10° W 20:09:21 15° WSW 20:09:21 15° WSW visible
20 Dec ? 19:15:48 10° WNW 19:18:50 31° SW 19:21:51 10° SSE visible
21 Dec ? 18:24:27 10° NW 18:27:47 69° SW 18:31:08 10° SE visible
23 Dec ? 05:08:17 10° SSW 05:11:17 33° SE 05:14:17 10° ENE visible
24 Dec ? 04:18:04 10° S 04:20:15 17° SE 04:22:26 10° E visible
25 Dec ? 05:03:24 11° WSW 05:06:23 43° NW 05:09:31 10° NNE visible
26 Dec ? 04:17:41 18° NE 04:17:41 18° NE 04:18:37 10° NE visible
